KB8VUC Weather Reports


Display with metric or nautical units.
time (UTC)temp
F
wind
direction
speed
MPH
gust
MPH
rain 1hr
in
rain 24hr
in
rain mn
in
humidity
%
barometer
mb
20260503021515 40 211 0.0 3.0 0.00 0.00 0.00 58 1012.2
20260503020015 40 225 0.0 2.0 0.00 0.00 0.00 58 1012.2
20260503014522 41 225 0.0 1.0 0.00 0.00 0.00 55 1012.1
20260503013022 42 225 1.0 4.0 0.00 0.00 0.00 47 1012.0
20260503011513 43 236 2.0 4.0 0.00 0.00 0.00 1012.0
20260503010011 44 227 3.0 6.0 0.00 0.00 0.00 44 1012.0
20260503004510 45 246 3.0 7.0 0.00 0.00 0.00 1012.0
20260503003009 46 263 3.0 6.0 0.00 0.00 0.00 41 1011.9
20260503001600 47 262 3.0 10.0 0.00 0.00 0.00 40 1011.9
20260503000104 48 262 5.0 11.0 0.00 0.00 0.00 38 1011.9
20260502234536 48 275 5.0 11.0 0.00 0.00 0.00 36 1011.9
20260502233043 49 254 7.0 12.0 0.00 0.00 0.00 35 1012.0
20260502231552 48 223 5.0 11.0 0.00 0.00 0.00 36 1012.0
20260502230033 49 303 5.0 13.0 0.00 0.00 0.00 34 1012.2
20260502224532 49 280 6.0 13.0 0.00 0.00 0.00 35 1012.2
20260502223031 49 274 5.0 15.0 0.00 0.00 0.00 33 1012.3
20260502221529 50 281 7.0 13.0 0.00 0.00 0.00 34 1012.4
20260502220035 50 253 9.0 16.0 0.00 0.00 0.00 34 1012.4
20260502214517 49 270 8.0 16.0 0.00 0.00 0.00 36 1012.5
20260502213014 49 283 7.0 16.0 0.00 0.00 0.00 1012.5
20260502211521 49 254 9.0 18.0 0.00 0.00 0.00 37 1012.5
20260502210012 51 277 9.0 17.0 0.00 0.00 0.00 37 1012.6
20260502204510 51 275 7.0 19.0 0.00 0.00 0.00 35 1012.7
20260502203009 52 250 9.0 19.0 0.00 0.00 0.00 35 1013.0
20260502201507 51 255 9.0 21.0 0.00 0.00 0.00 35 1013.1
20260502200006 52 265 8.0 19.0 0.00 0.00 0.00 38 1013.3
20260502194556 52 251 6.0 15.0 0.00 0.00 0.00 35 1013.4
20260502193051 52 281 12.0 23.0 0.00 0.00 0.00 35 1013.4
20260502191549 51 259 8.0 22.0 0.00 0.00 0.00 39 1013.5
20260502190050 0 243 8.0 22.0 0.00 0.00 0.00 38 1013.7
20260502184547 53 227 10.0 20.0 0.00 0.00 0.00 38 1013.9
20260502183047 51 292 12.0 17.0 0.00 0.00 0.00 37 1013.9
20260502181544 50 272 6.0 17.0 0.00 0.00 0.00 42 1014.0
20260502163030 47 260 8.0 12.0 0.00 0.00 0.00 48 1014.8
20260502161521 45 264 3.0 11.0 0.00 0.00 0.00 51 1015.0
20260502151553 47 257 5.0 13.0 0.00 0.00 0.00 42 1014.9
20260502123021 38 316 3.0 9.0 0.00 0.00 0.00 80 1015.3
20260502121515 36 349 4.0 9.0 0.00 0.00 0.00 82 1015.2
20260502114515 35 294 0.0 0.0 0.00 0.00 0.00 81 1015.0
20260502113016 34 294 0.0 0.0 0.00 0.00 0.00 89 1014.9
20260502111601 31 294 0.0 0.0 0.00 0.00 0.00 89 1014.8
20260502110057 30 294 0.0 0.0 0.00 0.00 0.00 87 1014.8
20260502104555 31 294 0.0 0.0 0.00 0.00 0.00 87 1014.8
20260502103053 31 294 0.0 2.0 0.00 0.00 0.00 87 1014.8
20260502101554 31 294 0.0 1.0 0.00 0.00 0.00 85 1014.7
20260502100104 32 290 0.0 1.0 0.00 0.00 0.00 82 1014.6
20260502070009 34 285 2.0 3.0 0.00 0.00 0.00 78 1014.1
20260502064512 34 285 1.0 2.0 0.00 0.00 0.00 77 1014.1
20260502063007 35 277 0.0 2.0 0.00 0.00 0.00 77 1014.2
20260502061506 35 277 1.0 3.0 0.00 0.00 0.00 75 1014.3
20260502060004 35 284 1.0 3.0 0.00 0.00 0.00 74 1014.4
20260502054505 35 294 2.0 3.0 0.00 0.00 0.00 72 1014.3
20260502053101 35 298 1.0 3.0 0.00 0.00 0.00 71 1014.3
20260502053001 0 298 1.0 3.0 0.00 0.00 0.00 71 1014.3
20260502051702 35 315 0.0 2.0 0.00 0.00 0.00 72 1014.3
20260502050046 36 302 1.0 3.0 0.00 0.00 0.00 69 1014.3
20260502044544 36 309 2.0 6.0 0.00 0.00 0.00 68 1014.2
20260502043044 36 304 2.0 6.0 0.00 0.00 0.00 67 1014.1
20260502041540 36 288 2.0 6.0 0.00 0.00 0.00 67 1014.0
20260502040035 36 290 2.0 5.0 0.00 0.00 0.00 65 1014.0
20260502034541 36 287 3.0 8.0 0.00 0.00 0.00 64 1013.9
20260502033030 36 310 2.0 7.0 0.00 0.00 0.00 62 1013.8
20260502031521 37 308 3.0 7.0 0.00 0.00 0.00 60 1013.7
20260502030006 37 323 4.0 6.0 0.00 0.00 0.00 58 1013.7
20260502024501 38 321 4.0 8.0 0.00 0.00 0.00 57 1013.6
20260502023101 38 298 5.0 11.0 0.00 0.00 0.00 55 1013.6